Tracking 23114 objects as of 15-May-2021
HD Live streaming from Space Station
objects crossing your sky now

SL-6 R/B(2)

Track SL-6 R/B(2) now!


NORAD ID: 8018
Int'l Code: 1975-063D
Perigee: 210.1 km
Apogee: 30,588.0 km
Inclination: 62.5 °
Period: 532.8 minutes
Semi major axis: 21770 km
RCS: 7.1776 m2 (large)
Launch date: July 8, 1975
Source: Commonwealth of Independent States (former USSR) (CIS)
Launch site: PLESETSK MISSILE AND SPACE COMPLEX (PKMTR)

Note: This is a ROCKET BODY
aabbcc
Your satellite tracking list
Your tracking list is empty




NASA's NSSDC Master Catalog

Two Line Element Set (TLE):
1  8018U 75063D   21133.92101863  .00003916  00000-0  29487-3 0  9990
2  8018  62.5150 325.6652 6976990 292.0208  10.6061  2.70279858331274
Source of the keplerian elements: AFSPC